Owatonna, Minnesota, United States (55060)
Lat: 44.08N, Lon: 93.23W
Wx Zone: MNZ085
Local Info
Past Weather Observations for Today

NOTE: This archive is for the closest National Weather Service station to Owatonna. Information may differ from the station used for current weather conditions.

Click here for Long-term Archive

Time Weather Temperature Dewpoint Humidity Pressure Winds Precip Visibility
12:55
Partly Cloudy
14°F / -10°C °F / -18°C 52% 30.27 in
(1025 mb)
SW 5.8 mph
(SW 9 kph)
- 10SM
12:35
Partly Cloudy
12°F / -11°C °F / -18°C 57% 30.27 in
(1025 mb)
S 5.8 mph
(S 9 kph)
- 10SM
12:15
Partly Cloudy
12°F / -11°C °F / -18°C 57% 30.27 in
(1025 mb)
SSE 6.9 mph
(SSE 11 kph)
- 10SM
11:55
Clear
12°F / -11°C °F / -18°C 57% 30.3 in
(1026 mb)
SSE 6.9 mph
(SSE 11 kph)
- 10SM
11:36
Clear
10°F / -12°C °F / -18°C 61% 30.3 in
(1026 mb)
SSE 5.8 mph
(SSE 9 kph)
- 10SM
11:16
Clear
10°F / -12°C -2°F / -19°C 56% 30.3 in
(1026 mb)
SW 5.8 mph
(SW 9 kph)
- 10SM
10:55
Clear
9°F / -13°C °F / -18°C 66% 30.3 in
(1026 mb)
SW 3.5 mph
(SW 6 kph)
- 10SM
10:35
Clear
9°F / -13°C °F / -18°C 66% 30.3 in
(1026 mb)
SW 3.5 mph
(SW 6 kph)
- 10SM
10:15
Clear
7°F / -14°C °F / -18°C 72% 30.3 in
(1026 mb)
Calm - 10SM
09:56
Clear
7°F / -14°C °F / -18°C 72% 30.3 in
(1026 mb)
SW 3.5 mph
(SW 6 kph)
- 10SM
09:35
Clear
5°F / -15°C -2°F / -19°C 72% 30.3 in
(1026 mb)
SW 5.8 mph
(SW 9 kph)
- 10SM
09:13
Clear
3°F / -16°C -2°F / -19°C 78% 30.3 in
(1026 mb)
Calm - 10SM
08:55
Clear
3°F / -16°C -2°F / -19°C 78% 30.3 in
(1026 mb)
Calm - 10SM
08:35
Clear
°F / -18°C -6°F / -21°C 78% 30.3 in
(1026 mb)
Calm - 10SM
08:15
Clear
°F / -18°C -6°F / -21°C 78% 30.3 in
(1026 mb)
Calm - 10SM
07:55
Clear
°F / -18°C -6°F / -21°C 78% 30.3 in
(1026 mb)
Calm - 10SM
07:35
Clear
-2°F / -19°C -8°F / -22°C 77% 30.3 in
(1026 mb)
Calm - 10SM
07:15
Clear
°F / -18°C -6°F / -21°C 78% 30.3 in
(1026 mb)
Calm - 10SM
06:55
Clear
-2°F / -19°C -8°F / -22°C 77% 30.3 in
(1026 mb)
Calm - 10SM
06:36
Clear
-4°F / -20°C -8°F / -22°C 84% 30.3 in
(1026 mb)
Calm - 10SM
06:15
Clear
-2°F / -19°C -8°F / -22°C 77% 30.3 in
(1026 mb)
Calm - 10SM
05:55
Clear
-2°F / -19°C -8°F / -22°C 77% 30.3 in
(1026 mb)
Calm - 10SM
05:35
Clear
-2°F / -19°C -8°F / -22°C 77% 30.27 in
(1025 mb)
SW 4.6 mph
(SW 7 kph)
- 10SM
05:15
Clear
-2°F / -19°C -8°F / -22°C 77% 30.27 in
(1025 mb)
Calm - 10SM
04:55
Clear
°F / -18°C -6°F / -21°C 78% 30.27 in
(1025 mb)
Calm - 10SM
04:35
Clear
-2°F / -19°C -6°F / -21°C 84% 30.27 in
(1025 mb)
Calm - 10SM
04:15
Clear
-2°F / -19°C -8°F / -22°C 77% 30.27 in
(1025 mb)
Calm - 10SM
03:55
Clear
-2°F / -19°C -8°F / -22°C 77% 30.27 in
(1025 mb)
Calm - 10SM
03:35
Clear
°F / -18°C -6°F / -21°C 78% 30.24 in
(1024 mb)
Calm - 10SM
03:16
Clear
°F / -18°C -6°F / -21°C 78% 30.27 in
(1025 mb)
Calm - 10SM
02:55
Clear
°F / -18°C -6°F / -21°C 78% 30.27 in
(1025 mb)
Calm - 10SM
02:35
Clear
1°F / -17°C -6°F / -21°C 71% 30.27 in
(1025 mb)
Calm - 10SM
02:15
Clear
°F / -18°C -6°F / -21°C 78% 30.24 in
(1024 mb)
Calm - 10SM
01:55
Clear
°F / -18°C -8°F / -22°C 71% 30.24 in
(1024 mb)
Calm - 10SM
01:35
Clear
°F / -18°C -6°F / -21°C 78% 30.24 in
(1024 mb)
Calm - 10SM
01:15
Clear
1°F / -17°C -6°F / -21°C 71% 30.24 in
(1024 mb)
Calm - 10SM
00:55
Clear
3°F / -16°C -4°F / -20°C 72% 30.24 in
(1024 mb)
Calm - 10SM
00:35
Clear
5°F / -15°C -2°F / -19°C 72% 30.24 in
(1024 mb)
Calm - 10SM
00:15
Clear
3°F / -16°C -4°F / -20°C 72% 30.24 in
(1024 mb)
Calm - 10SM
Time Weather Temperature Dewpoint Humidity Pressure Winds Precip Visibility


Weather for websites

WeatherForYou.com, LLC is not responsible for any damages or problems caused by this service. Current weather conditions are obtained from the closest station including government and personal stations which may have varying degrees of accuracy. Weather forecasts are derived from the NOAA NDFD. Like all things, this site belongs to Jesus Christ... He just trusts us to maintain it. If you have any questions or comments email webmaster@weatherforyou.com

Copyright © 2016, WeatherForYou.com LLC. All rights reserved.